Погода Богучаны

Погода Богучаны : погода сейчас, прогноз погоды и архив. Всё, что Вы хотите узнать о погоде Богучаны!

Хотите узнать прогноз погоды Богучаны? Тогда Вам сюда: Погода Богучаны

Поиск расширенной информации на нашем сайте:

Другие новости

Новости СМИ2

Главная страница сайта

Новости сайта

02.10.2013

Напоминаем, что на нашем новом сайте вы можете получить высокодетализированные прогнозы погоды по пунктам России, СНГ и мира (включающие важные для авиации метеовеличины, такие как направление и скорость ветра, видимость, явления погоды, количество и форма облачности, нижняя и верхняя граница облачности), а также ознакомиться с разнообразными материалами по авиационной метеорологии и подборкой полезных ссылок на эту тему.

Сайт Метеоцентр.Азия посвящён разработке технологий оптимизации авиаметеорологического обслуживания, включая проектирование и перспективное создание нескольких автоматизированных авиаметеорологических систем:
- система выпуска высокодетальных прогностических карт явлений погоды для нижнего воздушного пространства по России и ближнему зарубежью;
- система верификации прогнозов TAF (выпускаемых синоптиками официальных АМСГ РФ и ближнего зарубежья) и AUTOTAF (выпускаемых сайтом Метеоцентр.Азия) - выявление ошибок, онлайн-сопоставление с фактической погодой METAR, автоматическое внесение коррективов в прогнозы при резком отклонении фактической погоды от прогноза, подсчёт оправдываемости прогнозов по элементам и в целом;
- система обработки, анализа и отображения авиаметеорологической информации для применения провайдерами метеорологической информации.

Рекомендуем: заказ рулонных жалюзи

Погода Богучаны - сегодня

Время (UTC), дата Ветер
(°,м/с) 
Видим.   Явления Облачность Т
(°С)
Тd
(°С)
f(%) Тe
(°С)
Pmin
(гПа)
dP
(гПа)
Po
(мм)
O2
(г/м3)
Тmin Tmax R s Состояние
почвы
18 23.02.17 260 (З) 50000 м  {снег}  10/4 600 м средняя 
[Frnb|Ac As]
-1.8 -5.1 78 -4  1022.8  0.5  754  307           
21 23.02.17 240 (ЮЗ) 50000 м    10/4 600 м средняя 
[Frnb|Ac As]
-1.7 -5 78 -4  1023.1  0.3  755  307           
00 24.02.17 240 (ЮЗ) 50000 м    10/5 600 м средняя 
[Frnb|Ac As]
-1.3 -4.3 80 -2  1023.3  0.3  755  306  -3.4    0.0  47  равномерный
сухой снег
100% 
03 24.02.17 250 (З) 20000 м    10/10 600 м кучево-дожд. 
[Cb cap]
-0.7 -4.3 77 -3  1023.9  0.5  755  306           
06 24.02.17 250 (З) 20000 м    3/0 верхняя 
[Ci fib]
+2.3 -5.3 57 +1  1023.1  -0.6  755  302           
09 24.02.17 230 (ЮЗ) 20000 м    1/0 верхняя 
[Ci fib]
+4.3 -5.5 49 +3  1022.4  -0.5  754  300           
12 24.02.17 240 (ЮЗ) 50000 м    1/0 верхняя 
[Ci fib]
+0.6 -5.8 62 -1  1022.8  0.2  755  304    +4.4       
15 24.02.17 250 (З) 50000 м    ясно 
-0.7 -6.3 66 -2  1022.5  -0.4  754  305           
18 24.02.17 тихо ()   50000 м    ясно 
-9 -10 92 -9  1022.1  -1  753  315           
21 24.02.17 тихо ()   27000 м    ясно 
-12.1 -13.3 91 -12  1021  -1.3  752  318           
00 25.02.17 тихо ()   1900 м  дымка  ясно 
-13.3 -14.7 89 -13  1020.2  -0.8  752  320  -13.6      45  равномерный
мокрый или
старый снег
100% 
03 25.02.17 340 (С) 4000 м  дымка{туман}  10/0 верхняя 
[Ci fib]
-12.1 -13.6 89 -12  1019.2  -0.9  751  318           
06 25.02.17 280 (З) 20000 м  {туман}  ясно 
-1.9 -7.4 66 -3  1017.1  -1.4  750  305           
09 25.02.17 290 (З) 20000 м    9/9 600 м кучево-дожд. 
[Cb cap]
+1 -7.8 52 -1  1016.3  -0.6  750  302           
12 25.02.17 250 (З) 50000 м    9/8 600 м кучево-дожд., верхняя 
[Cb cap|Ci fib]
-0.4 -8 56 -2  1017.3  0.9  750  304    +1.6       
15 25.02.17 250 (З) 50000 м    8/0 верхняя 
[Ci fib]
-3.3 -8.4 68 -5  1018.2  0.7  751  307           
18 25.02.17 200 (Ю) 50000 м    9/5 600 м кучево-дожд., верхняя 
[Cb cap|Ci fib]
-7.8 -9.9 85 -8  1018.6  0.1  751  312           
21 25.02.17 тихо ()   14000 м  слаб. снег  10/4 600 м средняя 
[Frnb|Ac As]
-6.6 -8.5 86 -7  1018.4  -0.2  751  311           
00 26.02.17 310 (СЗ) 6000 м  слаб. снег  10/3 600 м средняя 
[Frnb|Ac As]
-7.5 -8.9 90 -7  1018.9  0.5  751  312  -9.7    46  равномерный
сухой снег
100% 
03 26.02.17 300 (СЗ) 20000 м  в посл. час снег  10/0 верхняя 
[Cs]
-7.2 -9.9 81 -7  1019.9  752  312           
06 26.02.17 330 (СЗ) 20000 м  {снег}  1/1 1000 м 
[Cu hum]
-5.6 -12.8 57 -5  1020.9  1.1  753  311           
09 26.02.17 310 (СЗ) 20000 м    1/1 1000 м 
[Cu hum]
-7 -13.7 59 -7  1022.2  1.2  754  313           
12 26.02.17 230 (ЮЗ) 50000 м    ясно 
-12.3 -15.2 79 -12  1025.3  2.7  756  320    -4.3  0.6     
15 26.02.17 тихо ()   27000 м    ясно 
-17.6 -19.7 84 -18  1028.3  2.6  758  328           
18 26.02.17 тихо ()   26000 м    ясно 
-20.9 -22.9 84 -21      760  333           
Время (UTC), дата Ветер
(°,м/с) 
Видим.   Явления Облачность Т
(°С)
Тd
(°С)
f(%) Тe
(°С)
Pmin
(гПа)
dP
(гПа)
Po
(мм)
O2
(г/м3)
Тmin Tmax R s Состояние
почвы

Для получения пояснительной информации подведите курсор к названию столбца.

ПОГОДА Богучаны - архив

Всё, что Вы хотите узнать о погоде Богучаны - удобно и подробно!

Выберите нужную дату (начиная с 1 января 2015* года) и нажмите кнопку "Найти".
Будут отображены архивные сводки погоды по пункту Богучаны, начиная с указанной даты.


Отображать данные в формате CSV (для использования в таблицах Excel)


Внимание! Наш архив погоды предназначен исключительно для личного некоммерческого использования в познавательных целях. Если Вам необходимы официальные справки о состоянии погоды (для производственных, юридических, коммерческих и т.п. целей), обращайтесь в органы Росгидромета.

*Примечание: данная дата относится к архиву по метеостанциям СССР (Россия, СНГ, Балтия).
Архив по метеостанциям Зарубежной Европы и Азии (кроме Китая) хранится 10 дней, по другим регионам земного шара (Китай, Африка, Америка, Австралия, Океания) - 1 день.

Богучаны - район местоположения метеостанции


Название, широта, долгота, высота метеостанции:
Богучаны 58.4°ш. 97.4°д. 133 м над ур. моря [Российская Федерация]

Дополнительная информация

В oтличие oт бoльшинства пoгoдных сайтoв мы публикуем пoдрoбную метеoинфoрмацию в детальнoм прoфессиoнальнoм фoрмате.

Характеристики температуры и влажнoсти вoздуха измеряются на высoте 2 м в тени вдали oт зданий и деревьев.
Скoрoсть ветра измеряется на высoте 10 м (на урoвне рoста челoвека скoрoсть ветра ниже в 1.5-2 раза). Если метеoстанция нахoдится в гoрoде или в лесу, тo скoрoсть ветра занижена на 2-4 м/с пo сравнению с oткрытым местoм. Скoрoсть ветра над акватoриями крупных рек и oзёр, а также на вершинах хoлмoв на 2-5 м/с выше, чем в oбычных услoвиях.
Атмoсфернoе давление в разных тoчках местнoсти мoжет значительнo oтличаться oт давления на метеoстанции, в зависимoсти oт услoвий рельефа (при пoдъёме на 10 м давление пoнижается примернo на 1 мм рт.ст.).